Time,TemperatureF,DewpointF,PressureIn,WindDirection,WindDirectionDegrees,WindSpeedMPH,WindSpeedGustMPH,Humidity,HourlyPrecipIn,Conditions,Clouds,dailyrainin,SolarRadiationWatts/m^2,SoftwareType,DateUTC
2013-02-15 00:12:00,55.5,31.0,30.48,North,355,0.0,-999.0,40,-99.99,,,0.00,0,weatherlink.com 1.10,2013-02-15 08:12:00,
2013-02-15 00:27:00,56.7,31.0,30.48,North,355,0.0,-999.0,38,-99.99,,,0.00,0,weatherlink.com 1.10,2013-02-15 08:27:00,
2013-02-15 00:42:00,57.0,33.0,30.48,North,355,0.0,-999.0,41,-99.99,,,0.00,0,weatherlink.com 1.10,2013-02-15 08:42:00,
2013-02-15 00:57:00,55.7,33.0,30.48,North,355,0.0,-999.0,43,-99.99,,,0.00,0,weatherlink.com 1.10,2013-02-15 08:57:00,
2013-02-15 01:12:00,55.3,31.0,30.48,North,355,0.0,-999.0,40,-99.99,,,0.00,0,weatherlink.com 1.10,2013-02-15 09:12:00,
2013-02-15 01:27:00,55.7,32.0,30.47,North,355,0.0,-999.0,41,-99.99,,,0.00,0,weatherlink.com 1.10,2013-02-15 09:27:00,
2013-02-15 01:42:00,54.3,33.0,30.47,North,355,0.0,-999.0,45,-99.99,,,0.00,0,weatherlink.com 1.10,2013-02-15 09:42:00,
2013-02-15 01:57:00,53.0,33.0,30.47,North,355,0.0,-999.0,46,-99.99,,,0.00,0,weatherlink.com 1.10,2013-02-15 09:57:00,
2013-02-15 02:12:00,52.8,32.0,30.48,North,355,0.0,-999.0,45,-99.99,,,0.00,0,weatherlink.com 1.10,2013-02-15 10:12:00,
2013-02-15 02:27:00,52.9,31.0,30.47,North,355,0.0,-999.0,44,-99.99,,,0.00,0,weatherlink.com 1.10,2013-02-15 10:27:00,
2013-02-15 02:42:00,53.1,31.0,30.47,North,355,0.0,-999.0,43,-99.99,,,0.00,0,weatherlink.com 1.10,2013-02-15 10:42:00,
2013-02-15 02:57:00,53.3,31.0,30.48,North,355,0.0,-999.0,43,-99.99,,,0.00,0,weatherlink.com 1.10,2013-02-15 10:57:00,
2013-02-15 03:12:00,52.9,31.0,30.48,North,355,0.0,-999.0,44,-99.99,,,0.00,0,weatherlink.com 1.10,2013-02-15 11:12:00,
2013-02-15 03:27:00,53.0,31.0,30.48,North,355,0.0,-999.0,43,-99.99,,,0.00,0,weatherlink.com 1.10,2013-02-15 11:27:00,
2013-02-15 03:42:00,53.1,31.0,30.48,North,355,0.0,-999.0,43,-99.99,,,0.00,0,weatherlink.com 1.10,2013-02-15 11:42:00,
2013-02-15 03:57:00,52.4,31.0,30.49,North,355,0.0,-999.0,45,-99.99,,,0.00,0,weatherlink.com 1.10,2013-02-15 11:57:00,
2013-02-15 04:13:00,51.4,32.0,30.48,North,355,0.0,-999.0,48,-99.99,,,0.00,0,weatherlink.com 1.10,2013-02-15 12:13:00,
2013-02-15 04:28:00,50.3,33.0,30.49,North,355,0.0,-999.0,51,-99.99,,,0.00,0,weatherlink.com 1.10,2013-02-15 12:28:00,
2013-02-15 04:43:00,50.3,32.0,30.50,North,355,0.0,-999.0,49,-99.99,,,0.00,0,weatherlink.com 1.10,2013-02-15 12:43:00,
2013-02-15 04:58:00,51.1,32.0,30.50,North,355,0.0,-999.0,48,-99.99,,,0.00,0,weatherlink.com 1.10,2013-02-15 12:58:00,
2013-02-15 05:13:00,50.8,31.0,30.51,North,355,0.0,-999.0,47,-99.99,,,0.00,0,weatherlink.com 1.10,2013-02-15 13:13:00,
2013-02-15 05:28:00,51.4,32.0,30.51,North,355,0.0,-999.0,47,-99.99,,,0.00,0,weatherlink.com 1.10,2013-02-15 13:28:00,
2013-02-15 05:43:00,54.0,29.0,30.51,North,355,5.0,-999.0,39,-99.99,,,0.00,0,weatherlink.com 1.10,2013-02-15 13:43:00,
2013-02-15 05:58:00,55.1,30.0,30.52,North,355,0.0,-999.0,39,-99.99,,,0.00,0,weatherlink.com 1.10,2013-02-15 13:58:00,
2013-02-15 06:13:00,54.8,31.0,30.52,North,355,0.0,-999.0,40,-99.99,,,0.00,0,weatherlink.com 1.10,2013-02-15 14:13:00,
2013-02-15 06:28:00,54.4,30.0,30.52,North,355,0.0,-999.0,40,-99.99,,,0.00,0,weatherlink.com 1.10,2013-02-15 14:28:00,
2013-02-15 06:43:00,54.1,32.0,30.53,North,355,0.0,-999.0,44,-99.99,,,0.00,12,weatherlink.com 1.10,2013-02-15 14:43:00,
2013-02-15 06:58:00,54.8,30.0,30.53,North,355,0.0,-999.0,39,-99.99,,,0.00,39,weatherlink.com 1.10,2013-02-15 14:58:00,
2013-02-15 07:13:00,57.9,31.0,30.54,North,355,0.0,-999.0,36,-99.99,,,0.00,90,weatherlink.com 1.10,2013-02-15 15:13:00,
2013-02-15 07:28:00,59.0,30.0,30.55,North,355,0.0,-999.0,34,-99.99,,,0.00,114,weatherlink.com 1.10,2013-02-15 15:28:00,
2013-02-15 07:43:00,60.9,32.0,30.55,North,355,0.0,-999.0,34,-99.99,,,0.00,174,weatherlink.com 1.10,2013-02-15 15:43:00,
2013-02-15 07:58:00,62.4,31.0,30.55,North,355,1.0,-999.0,31,-99.99,,,0.00,199,weatherlink.com 1.10,2013-02-15 15:58:00,
2013-02-15 08:13:00,64.3,31.0,30.56,North,351,0.0,-999.0,29,-99.99,,,0.00,190,weatherlink.com 1.10,2013-02-15 16:13:00,
2013-02-15 08:28:00,65.7,32.0,30.56,North,350,0.0,-999.0,28,-99.99,,,0.00,287,weatherlink.com 1.10,2013-02-15 16:28:00,
2013-02-15 08:43:00,66.7,34.0,30.57,North,350,0.0,-999.0,30,-99.99,,,0.00,309,weatherlink.com 1.10,2013-02-15 16:43:00,
2013-02-15 08:58:00,67.5,32.0,30.57,NNW,346,1.0,-999.0,27,-99.99,,,0.00,417,weatherlink.com 1.10,2013-02-15 16:58:00,
2013-02-15 09:13:00,69.0,32.0,30.57,NNW,344,0.0,-999.0,25,-99.99,,,0.00,504,weatherlink.com 1.10,2013-02-15 17:13:00,
2013-02-15 09:29:00,70.5,31.0,30.57,NNW,335,2.0,-999.0,23,-99.99,,,0.00,533,weatherlink.com 1.10,2013-02-15 17:29:00,
2013-02-15 09:44:00,71.9,32.0,30.57,NNW,334,2.0,-999.0,23,-99.99,,,0.00,580,weatherlink.com 1.10,2013-02-15 17:44:00,
2013-02-15 09:59:00,73.1,31.0,30.56,NNW,334,4.0,-999.0,21,-99.99,,,0.00,619,weatherlink.com 1.10,2013-02-15 17:59:00,
2013-02-15 10:14:00,73.8,29.0,30.56,NNW,330,0.0,-999.0,19,-99.99,,,0.00,657,weatherlink.com 1.10,2013-02-15 18:14:00,
2013-02-15 10:29:00,74.3,28.0,30.56,NW,323,0.0,-999.0,18,-99.99,,,0.00,684,weatherlink.com 1.10,2013-02-15 18:29:00,
2013-02-15 10:44:00,74.9,27.0,30.56,NW,325,2.0,-999.0,17,-99.99,,,0.00,622,weatherlink.com 1.10,2013-02-15 18:44:00,
2013-02-15 10:59:00,75.1,27.0,30.56,NW,325,4.0,-999.0,17,-99.99,,,0.00,533,weatherlink.com 1.10,2013-02-15 18:59:00,
2013-02-15 11:14:00,75.5,28.0,30.55,NW,325,2.0,-999.0,17,-99.99,,,0.00,561,weatherlink.com 1.10,2013-02-15 19:14:00,
2013-02-15 11:29:00,75.8,26.0,30.54,NW,323,2.0,-999.0,16,-99.99,,,0.00,693,weatherlink.com 1.10,2013-02-15 19:29:00,
2013-02-15 11:44:00,76.7,29.0,30.54,NW,323,0.0,-999.0,17,-99.99,,,0.00,691,weatherlink.com 1.10,2013-02-15 19:44:00,
2013-02-15 11:59:00,77.3,31.0,30.54,NW,319,0.0,-999.0,18,-99.99,,,0.00,668,weatherlink.com 1.10,2013-02-15 19:59:00,
2013-02-15 12:14:00,77.5,29.0,30.53,NW,319,5.0,-999.0,17,-99.99,,,0.00,744,weatherlink.com 1.10,2013-02-15 20:14:00,
2013-02-15 12:29:00,77.9,27.0,30.52,NW,319,0.0,-999.0,15,-99.99,,,0.00,717,weatherlink.com 1.10,2013-02-15 20:29:00,
2013-02-15 12:44:00,78.9,30.0,30.52,WNW,294,2.0,-999.0,17,-99.99,,,0.00,717,weatherlink.com 1.10,2013-02-15 20:44:00,
2013-02-15 12:59:00,79.2,28.0,30.51,WNW,294,2.0,-999.0,15,-99.99,,,0.00,541,weatherlink.com 1.10,2013-02-15 20:59:00,
2013-02-15 13:14:00,79.3,28.0,30.50,WNW,294,0.0,-999.0,15,-99.99,,,0.00,557,weatherlink.com 1.10,2013-02-15 21:14:00,
2013-02-15 13:29:00,78.7,29.0,30.49,WNW,294,0.0,-999.0,16,-99.99,,,0.00,578,weatherlink.com 1.10,2013-02-15 21:29:00,
2013-02-15 13:44:00,78.6,27.0,30.49,WNW,294,0.0,-999.0,15,-99.99,,,0.00,540,weatherlink.com 1.10,2013-02-15 21:44:00,
2013-02-15 13:59:00,79.4,29.0,30.48,WNW,294,0.0,-999.0,16,-99.99,,,0.00,580,weatherlink.com 1.10,2013-02-15 21:59:00,
2013-02-15 14:14:00,79.7,30.0,30.48,WNW,294,4.0,-999.0,16,-99.99,,,0.00,577,weatherlink.com 1.10,2013-02-15 22:14:00,
2013-02-15 14:29:00,80.5,27.0,30.47,WNW,294,0.0,-999.0,14,-99.99,,,0.00,563,weatherlink.com 1.10,2013-02-15 22:29:00,
2013-02-15 14:44:00,79.7,26.0,30.47,WNW,293,0.0,-999.0,14,-99.99,,,0.00,350,weatherlink.com 1.10,2013-02-15 22:44:00,
2013-02-15 14:59:00,80.0,30.0,30.46,WNW,293,0.0,-999.0,16,-99.99,,,0.00,253,weatherlink.com 1.10,2013-02-15 22:59:00,
2013-02-15 15:14:00,79.4,28.0,30.46,WNW,293,1.0,-999.0,15,-99.99,,,0.00,295,weatherlink.com 1.10,2013-02-15 23:14:00,
2013-02-15 15:30:00,79.3,29.0,30.46,WNW,292,0.0,-999.0,16,-99.99,,,0.00,387,weatherlink.com 1.10,2013-02-15 23:30:00,
2013-02-15 15:45:00,78.9,27.0,30.46,WNW,292,0.0,-999.0,15,-99.99,,,0.00,230,weatherlink.com 1.10,2013-02-15 23:45:00,
2013-02-15 16:00:00,79.1,29.0,30.46,WNW,292,0.0,-999.0,16,-99.99,,,0.00,294,weatherlink.com 1.10,2013-02-16 00:00:00,
2013-02-15 16:15:00,79.2,28.0,30.46,WNW,293,0.0,-999.0,15,-99.99,,,0.00,225,weatherlink.com 1.10,2013-02-16 00:15:00,
2013-02-15 16:30:00,79.4,29.0,30.46,WNW,293,0.0,-999.0,16,-99.99,,,0.00,137,weatherlink.com 1.10,2013-02-16 00:30:00,
2013-02-15 16:45:00,79.1,31.0,30.47,WNW,293,0.0,-999.0,17,-99.99,,,0.00,98,weatherlink.com 1.10,2013-02-16 00:45:00,
2013-02-15 17:00:00,78.5,33.0,30.46,WNW,293,0.0,-999.0,19,-99.99,,,0.00,40,weatherlink.com 1.10,2013-02-16 01:00:00,
2013-02-15 17:15:00,76.5,28.0,30.47,WNW,292,0.0,-999.0,17,-99.99,,,0.00,18,weatherlink.com 1.10,2013-02-16 01:15:00,
2013-02-15 17:30:00,74.4,33.0,30.47,WNW,292,0.0,-999.0,22,-99.99,,,0.00,0,weatherlink.com 1.10,2013-02-16 01:30:00,
2013-02-15 17:45:00,72.0,32.0,30.47,WNW,292,0.0,-999.0,23,-99.99,,,0.00,0,weatherlink.com 1.10,2013-02-16 01:45:00,
2013-02-15 18:00:00,69.7,32.0,30.48,WNW,293,0.0,-999.0,25,-99.99,,,0.00,0,weatherlink.com 1.10,2013-02-16 02:00:00,
2013-02-15 18:15:00,68.0,32.0,30.49,WNW,293,0.0,-999.0,26,-99.99,,,0.00,0,weatherlink.com 1.10,2013-02-16 02:15:00,
2013-02-15 18:30:00,66.6,32.0,30.49,WNW,293,0.0,-999.0,28,-99.99,,,0.00,0,weatherlink.com 1.10,2013-02-16 02:30:00,
2013-02-15 18:45:00,65.8,32.0,30.49,WNW,293,0.0,-999.0,28,-99.99,,,0.00,0,weatherlink.com 1.10,2013-02-16 02:45:00,
2013-02-15 19:00:00,65.6,31.0,30.50,WNW,293,0.0,-999.0,28,-99.99,,,0.00,0,weatherlink.com 1.10,2013-02-16 03:00:00,
2013-02-15 19:15:00,64.4,30.0,30.50,WNW,292,0.0,-999.0,28,-99.99,,,0.00,0,weatherlink.com 1.10,2013-02-16 03:15:00,
2013-02-15 19:30:00,63.9,29.0,30.50,WNW,292,0.0,-999.0,27,-99.99,,,0.00,0,weatherlink.com 1.10,2013-02-16 03:30:00,
2013-02-15 19:45:00,64.0,30.0,30.51,WNW,293,0.0,-999.0,28,-99.99,,,0.00,0,weatherlink.com 1.10,2013-02-16 03:45:00,
2013-02-15 20:00:00,63.0,32.0,30.51,WNW,293,0.0,-999.0,31,-99.99,,,0.00,0,weatherlink.com 1.10,2013-02-16 04:00:00,
2013-02-15 20:15:00,62.8,29.0,30.51,WNW,293,0.0,-999.0,28,-99.99,,,0.00,0,weatherlink.com 1.10,2013-02-16 04:15:00,
2013-02-15 20:30:00,62.3,30.0,30.51,WNW,293,0.0,-999.0,30,-99.99,,,0.00,0,weatherlink.com 1.10,2013-02-16 04:30:00,
2013-02-15 20:45:00,60.5,31.0,30.52,WNW,293,0.0,-999.0,33,-99.99,,,0.00,0,weatherlink.com 1.10,2013-02-16 04:45:00,
2013-02-15 21:00:00,59.0,30.0,30.52,WNW,292,0.0,-999.0,34,-99.99,,,0.00,0,weatherlink.com 1.10,2013-02-16 05:00:00,
2013-02-15 21:15:00,58.9,31.0,30.53,WNW,292,0.0,-999.0,35,-99.99,,,0.00,0,weatherlink.com 1.10,2013-02-16 05:15:00,
2013-02-15 21:30:00,58.6,29.0,30.52,WNW,293,0.0,-999.0,33,-99.99,,,0.00,0,weatherlink.com 1.10,2013-02-16 05:30:00,
2013-02-15 21:45:00,58.2,31.0,30.53,WNW,293,0.0,-999.0,35,-99.99,,,0.00,0,weatherlink.com 1.10,2013-02-16 05:45:00,
2013-02-15 22:00:00,57.5,30.0,30.53,WNW,293,0.0,-999.0,35,-99.99,,,0.00,0,weatherlink.com 1.10,2013-02-16 06:00:00,
2013-02-15 22:15:00,58.1,30.0,30.53,WNW,293,0.0,-999.0,34,-99.99,,,0.00,0,weatherlink.com 1.10,2013-02-16 06:15:00,
2013-02-15 22:30:00,58.0,29.0,30.53,WNW,293,0.0,-999.0,33,-99.99,,,0.00,0,weatherlink.com 1.10,2013-02-16 06:30:00,
2013-02-15 22:45:00,57.8,28.0,30.53,WNW,292,0.0,-999.0,32,-99.99,,,0.00,0,weatherlink.com 1.10,2013-02-16 06:45:00,
2013-02-15 23:00:00,57.0,28.0,30.53,WNW,292,0.0,-999.0,33,-99.99,,,0.00,0,weatherlink.com 1.10,2013-02-16 07:00:00,
2013-02-15 23:15:00,56.8,28.0,30.53,WNW,293,0.0,-999.0,33,-99.99,,,0.00,0,weatherlink.com 1.10,2013-02-16 07:15:00,
2013-02-15 23:30:00,56.6,28.0,30.53,WNW,293,0.0,-999.0,34,-99.99,,,0.00,0,weatherlink.com 1.10,2013-02-16 07:30:00,
2013-02-15 23:45:00,56.9,29.0,30.53,WNW,293,0.0,-999.0,34,-99.99,,,0.00,0,weatherlink.com 1.10,2013-02-16 07:45:00,